#�ϑ�����,���ϕ���,���ϕ���,�ő啗��,�ő啗����������,�ő�u�ԕ���,�ő�u�ԕ�����������
#(�N����),(m/s)   ,(16����),(m/s)   ,(16����)        ,(m/s)       ,(16����)            
2012/11/8 0:30,0.8,3,0.8,3,1,3
2012/11/8 0:31,0.7,2,0.8,3,1,3
2012/11/8 0:32,0.6,16,0.7,3,0.8,16
2012/11/8 0:33,0.5,16,0.6,3,0.6,15
2012/11/8 0:34,0.5,16,0.5,3,0.5,16
2012/11/8 0:35,0.4,1,0.5,3,0.3,2
2012/11/8 0:36,0.3,2,0.4,3,0.1,4
2012/11/8 0:37,0.3,1,0.3,3,0,5
2012/11/8 0:38,0.3,1,0.3,3,0.6,9
2012/11/8 0:39,0.2,1,0.3,3,0.4,9
2012/11/8 0:40,0.2,16,0.2,3,0,9
2012/11/8 0:41,0.2,15,0.2,1,0,14
2012/11/8 0:42,0.1,13,0.2,16,0.5,9
2012/11/8 0:43,0.1,11,0.1,16,0.6,9
2012/11/8 0:44,0.1,10,0.1,16,0.4,9
2012/11/8 0:45,0.1,11,0.1,1,0.1,10
2012/11/8 0:46,0.1,11,0.1,2,0,10
2012/11/8 0:47,0.1,11,0.1,1,0.6,15
2012/11/8 0:48,0.1,12,0.1,1,0.5,15
2012/11/8 0:49,0.1,13,0.1,1,0.6,16
2012/11/8 0:50,0.2,13,0.2,16,0.9,15
2012/11/8 0:51,0.3,14,0.3,14,0.9,16
2012/11/8 0:52,0.3,15,0.3,14,0.9,1
2012/11/8 0:53,0.2,16,0.3,14,0.3,2
2012/11/8 0:54,0.3,16,0.3,14,0.9,1
2012/11/8 0:55,0.4,1,0.4,1,1.5,1
2012/11/8 0:56,0.5,1,0.5,1,1.6,1
2012/11/8 0:57,0.6,1,0.6,1,1.3,2
2012/11/8 0:58,0.7,1,0.7,1,1.3,2
2012/11/8 0:59,0.7,1,0.7,1,1.1,1
2012/11/8 1:00,0.7,2,0.7,1,1.3,3
2012/11/8 1:01,0.7,2,0.7,1,0.8,2
2012/11/8 1:02,0.7,2,0.7,1,0.6,2
2012/11/8 1:03,0.8,2,0.8,2,0.9,3
2012/11/8 1:38,1.5,1,1.5,1,1.5,1
2012/11/8 1:39,1.4,1,1.5,1,1.9,1
2012/11/8 1:40,1.1,2,1.4,1,1.4,1
2012/11/8 1:41,0.8,2,1.1,1,0.8,16
2012/11/8 1:42,0.8,2,0.8,1,0.9,1
2012/11/8 1:43,0.9,1,0.9,1,1.6,2
2012/11/8 1:44,0.9,1,0.9,1,1.6,16
2012/11/8 1:45,1,1,1,1,1.5,1
2012/11/8 1:46,1,1,1,1,1.4,16
2012/11/8 1:47,0.9,1,0.9,1,1.8,15
2012/11/8 1:48,1,1,1,1,2.1,15
2012/11/8 1:49,1,16,1,1,1.9,15
2012/11/8 1:50,1,16,1,2,1.4,15
2012/11/8 1:51,1.1,16,1.1,16,1.9,15
2012/11/8 2:16,0,11,0,11,0,11
2012/11/8 2:17,0,16,0,11,0.1,16
2012/11/8 2:18,0,15,0,11,0.1,10
2012/11/8 2:19,0,14,0,11,0.1,10
2012/11/8 2:20,0,14,0,11,0.1,15
2012/11/8 2:21,0,15,0,11,0.1,16
2012/11/8 2:22,0.1,15,0.1,15,0.6,1
2012/11/8 2:23,0.1,16,0.1,15,0.6,1
2012/11/8 2:24,0.1,16,0.1,15,0.3,3
2012/11/8 2:25,0.1,1,0.1,15,0.8,4
2012/11/8 2:26,0.2,1,0.2,1,0.9,4
2012/11/8 2:27,0.2,1,0.2,1,0.4,1
2012/11/8 2:28,0.3,2,0.3,1,0.9,3
2012/11/8 2:43,1.4,1,1.4,1,1.8,1
2012/11/8 2:44,1.1,1,1.2,1,1.6,1
2012/11/8 2:45,1.2,1,1.2,1,2,16
2012/11/8 2:46,1.3,1,1.3,1,2.2,15
2012/11/8 2:47,1.4,16,1.4,1,2.2,16
2012/11/8 2:48,1.4,16,1.4,1,1.6,16
2012/11/8 2:49,1.4,16,1.4,1,2.1,1
2012/11/8 2:50,1.5,16,1.5,16,2.7,1
2012/11/8 2:51,1.5,16,1.5,16,2.6,1
2012/11/8 2:52,1.5,16,1.5,16,1.9,1
2012/11/8 2:53,1.5,16,1.5,16,2.4,16
2012/11/8 2:54,1.5,16,1.5,16,1.5,2
2012/11/8 2:55,1.5,16,1.5,16,2,16
2012/11/8 2:56,1.5,16,1.5,16,2,16
2012/11/8 2:57,1.5,16,1.5,16,2.4,16
2012/11/8 2:58,1.6,16,1.6,16,2.7,1
2012/11/8 4:31,0.3,5,0.3,5,0.3,3
2012/11/8 4:32,0.5,6,0.5,6,0.8,6
2012/11/8 4:33,0.8,6,0.8,6,1,6
2012/11/8 4:34,0.9,6,0.9,6,1.1,5
2012/11/8 4:35,0.8,6,0.9,6,1.1,6
2012/11/8 4:36,0.8,6,0.9,6,1.1,7
2012/11/8 4:37,0.8,6,0.8,6,0.9,7
2012/11/8 4:38,0.7,6,0.8,6,0.5,7
2012/11/8 4:39,0.6,6,0.7,6,0.5,6
2012/11/8 4:40,0.6,5,0.6,6,0.8,2
2012/11/8 4:41,0.6,5,0.6,6,0.8,2
2012/11/8 4:42,0.6,4,0.6,6,1.4,16
2012/11/8 4:43,0.6,4,0.6,6,1.6,16
2012/11/8 4:44,0.6,3,0.6,6,1.4,16
2012/11/8 4:45,0.6,2,0.6,6,1.6,1
2012/11/8 4:46,0.7,1,0.7,6,1.5,16
2012/11/8 4:47,0.7,1,0.7,6,2,16
2012/11/8 5:20,0.8,1,0.8,1,0.9,1
2012/11/8 5:21,1,1,1,1,1.1,16
2012/11/8 5:22,0.9,1,1,1,1.3,1
2012/11/8 5:23,0.7,1,0.9,1,1,16
2012/11/8 5:24,0.5,1,0.7,1,0.4,2
2012/11/8 5:25,0.4,1,0.5,1,0,2
2012/11/8 5:26,0.3,1,0.4,1,0.1,8
2012/11/8 5:27,0.3,1,0.3,1,0.1,10
2012/11/8 5:28,0.4,1,0.4,1,1.1,2
2012/11/8 5:29,0.4,1,0.4,1,1.1,2
2012/11/8 5:30,0.4,1,0.4,1,0.8,1
2012/11/8 5:31,0.3,1,0.4,1,0.4,1
2012/11/8 5:32,0.3,2,0.3,1,0.4,2
2012/11/8 5:33,0.2,2,0.3,1,0.3,2
2012/11/8 5:34,0.2,2,0.2,1,0,3
2012/11/8 5:35,0.2,2,0.2,1,0,3
2012/11/8 5:36,0.2,2,0.2,1,0,3
2012/11/8 5:37,0.3,2,0.3,1,0.4,16
2012/11/8 5:38,0.2,2,0.3,1,1.4,1
2012/11/8 5:39,0.3,2,0.3,1,2,1
2012/11/8 5:40,0.4,2,0.4,1,1.5,1
2012/11/8 5:41,0.5,2,0.5,2,1.4,2
2012/11/8 5:42,0.6,2,0.6,2,1.1,2
2012/11/8 5:43,0.6,2,0.6,2,1,2
2012/11/8 5:44,0.6,2,0.6,2,0.1,1
2012/11/8 5:45,0.6,1,0.6,2,0.1,16
2012/11/8 5:46,0.6,1,0.6,2,0,16
2012/11/8 5:47,0.6,1,0.6,2,0,1
2012/11/8 5:48,0.6,1,0.6,2,1.3,16
2012/11/8 5:49,0.5,1,0.6,2,1.3,16
2012/11/8 5:50,0.4,1,0.5,2,0.6,2
2012/11/8 5:51,0.4,1,0.4,2,0.6,4
2012/11/8 5:52,0.3,2,0.4,2,0.5,5
2012/11/8 5:53,0.3,2,0.3,2,0.6,9
2012/11/8 5:54,0.3,2,0.3,2,0.4,4
2012/11/8 5:55,0.4,2,0.4,1,1.1,9
2012/11/8 5:56,0.5,3,0.5,1,1.4,9
2012/11/8 5:57,0.5,5,0.5,1,1.4,9
2012/11/8 5:58,0.5,7,0.5,1,0.5,10
2012/11/8 5:59,0.4,9,0.5,1,0.5,12
2012/11/8 6:00,0.4,10,0.4,3,0.8,14
2012/11/8 6:01,0.4,11,0.4,3,0.8,14
2012/11/8 6:02,0.5,12,0.5,3,1,16
2012/11/8 6:03,0.5,12,0.5,3,1.5,16
2012/11/8 6:04,0.7,13,0.7,13,1.5,16
2012/11/8 6:05,0.7,14,0.7,13,1.3,15
2012/11/8 6:06,0.6,14,0.7,13,1,14
2012/11/8 6:07,0.6,14,0.6,13,0.4,14
2012/11/8 6:08,0.6,14,0.6,13,0.6,12
2012/11/8 6:09,0.7,14,0.7,13,1.5,12
2012/11/8 6:10,0.8,14,0.8,14,1.5,12
2012/11/8 6:11,0.9,14,0.9,14,1.9,12
2012/11/8 6:12,1,13,1,14,2.1,11
2012/11/8 6:13,1,13,1,14,1.8,12
2012/11/8 6:14,1,13,1,14,1.6,12
2012/11/8 6:15,1.1,12,1.1,13,2,11
2012/11/8 6:16,1.1,12,1.1,13,1.6,12
2012/11/8 6:17,1.1,12,1.2,12,0.6,13
2012/11/8 6:18,1.1,12,1.2,12,0.6,15
2012/11/8 6:19,1.1,12,1.1,12,0.8,12
2012/11/8 6:20,0.9,12,1.1,12,0.5,11
2012/11/8 6:21,0.8,12,0.9,12,1,8
2012/11/8 6:22,0.7,12,0.8,12,0.6,9
2012/11/8 6:23,0.7,12,0.7,12,1.1,4
2012/11/8 6:24,0.6,12,0.7,12,1.1,5
2012/11/8 6:25,0.5,11,0.6,12,0.9,5
2012/11/8 6:26,0.5,8,0.5,12,1,5
2012/11/8 6:27,0.5,7,0.5,12,0.6,5
2012/11/8 6:28,0.5,7,0.5,12,0.6,8
2012/11/8 6:29,0.5,7,0.5,12,0.4,8
2012/11/8 6:30,0.5,7,0.5,12,0.1,9
2012/11/8 6:31,0.5,6,0.5,12,0.5,6
2012/11/8 6:32,0.5,6,0.5,12,0.9,3
2012/11/8 6:33,0.5,6,0.5,12,0.9,3
2012/11/8 6:34,0.4,5,0.5,12,0.6,16
2012/11/8 6:35,0.4,5,0.4,11,0.8,2
2012/11/8 6:36,0.3,5,0.3,8,0.6,3
2012/11/8 6:37,0.3,4,0.3,7,0.5,3
2012/11/8 6:38,0.2,3,0.3,7,0.1,3
2012/11/8 11:00,0.5,12,0.5,12,0.5,13
2012/11/8 11:01,0.9,11,0.9,11,1.3,12
2012/11/8 11:02,0.8,11,0.8,11,1.5,9
2012/11/8 11:03,1.1,10,1.1,10,2.5,10
2012/11/8 11:04,1.2,9,1.2,9,2.7,8
2012/11/8 11:05,1.5,9,1.5,9,3.5,9
2012/11/8 11:06,1.6,8,1.6,9,3.1,8
2012/11/8 11:07,1.6,8,1.6,9,2.4,9
2012/11/8 11:08,1.5,8,1.6,9,1.6,8
2012/11/8 11:09,1.5,8,1.5,9,2.4,9
2012/11/8 11:10,1.5,8,1.5,9,2.9,9
2012/11/8 11:11,1.5,8,1.5,9,3.1,7
2012/11/8 11:12,1.6,8,1.6,9,3.2,8
2012/11/8 11:13,1.6,8,1.6,9,1.9,9
2012/11/8 11:14,1.6,8,1.6,9,2.9,6
2012/11/8 11:15,1.5,8,1.6,9,3.3,7
2012/11/8 11:16,1.5,8,1.5,8,5.7,7
2012/11/8 11:17,1.6,8,1.6,8,4.7,8
2012/11/8 11:18,1.6,8,1.6,8,3.8,8
2012/11/8 11:19,1.6,8,1.6,8,4.2,9
2012/11/8 12:27,3.3,11,3.3,11,4.1,12
2012/11/8 12:28,3.5,10,4,10,7.1,9
2012/11/8 12:29,3.3,9,3.6,10,5.6,8
2012/11/8 12:30,3.1,9,3.3,10,5.6,9
2012/11/8 12:31,3,9,3.1,10,6,9
2012/11/8 12:32,2.9,9,3,10,4.7,9
2012/11/8 12:33,2.7,9,2.9,10,3.9,9
2012/11/8 12:34,2.7,9,2.7,10,4.7,9
2012/11/8 12:35,2.5,9,2.7,10,3.7,8
2012/11/8 12:36,2.4,9,2.5,10,3.3,9
2012/11/8 12:37,2.4,9,2.4,10,3.8,9
2012/11/8 12:38,2.2,9,2.4,10,3.7,8
2012/11/8 12:39,2,9,2.2,9,1.5,15
2012/11/8 12:40,1.8,10,2,9,2.1,9
2012/11/8 12:41,1.7,10,1.8,9,3.1,10
2012/11/8 12:42,1.7,10,1.7,9,4.1,11
2012/11/8 12:43,1.9,10,1.9,9,4.5,10
2012/11/8 12:44,1.8,10,1.9,9,5.5,9
2012/11/8 12:45,1.9,10,1.9,9,3.1,11
2012/11/8 12:46,2.1,10,2.1,9,6.2,9
2012/11/8 12:47,2.2,11,2.2,9,5,11
2012/11/8 12:48,2.1,11,2.1,9,2.9,10
2012/11/8 12:49,2.2,11,2.2,11,3.5,11
2012/11/8 12:50,2.2,11,2.2,11,2.1,8
2012/11/8 12:51,2.1,10,2.2,11,3.1,9
2012/11/8 12:52,2.2,10,2.2,11,4.3,11
2012/11/8 12:53,2,10,2.1,11,4.2,10
2012/11/8 12:54,1.9,10,2,11,3,8
2012/11/8 12:55,1.9,10,1.9,11,3,8
2012/11/8 12:56,1.9,10,1.9,11,5.6,10
2012/11/8 12:57,1.9,10,1.9,11,6,10
2012/11/8 17:59,2.5,15,2.5,15,2.6,15
2012/11/8 18:00,2.4,15,2.7,15,3.2,16
2012/11/8 18:01,2.1,16,2.5,15,3.2,16
2012/11/8 18:02,1.7,15,2,15,2,14
2012/11/8 18:03,1.5,15,1.7,15,2.9,15
2012/11/8 18:04,1.7,15,1.7,15,3.6,16
2012/11/8 18:05,1.8,15,1.8,15,3.1,14
2012/11/8 18:06,1.9,15,1.9,15,3.3,1
2012/11/8 18:07,1.9,15,1.9,15,3,15
2012/11/8 18:08,1.9,15,1.9,15,3.9,15
2012/11/8 18:09,2,15,2,15,4.2,1
2012/11/8 18:10,2,15,2,16,4.2,15
2012/11/8 18:11,1.9,15,2,15,3,16
2012/11/8 18:12,2,15,2,15,4.2,15
2012/11/8 18:13,2,15,2,15,2.2,1
2012/11/8 18:14,2,15,2,15,3.1,1
2012/11/8 18:15,2,16,2,15,3,1
2012/11/8 18:16,2,16,2,15,3.3,15
2012/11/8 18:17,2.1,16,2.1,16,3.5,15
2012/11/8 18:34,1.3,14,1.3,14,1.5,15
2012/11/8 18:35,1.2,15,1.3,14,1.5,15
2012/11/8 18:36,1.6,16,1.7,15,2.4,14
2012/11/8 18:37,1.5,16,1.5,15,2.7,15
2012/11/8 18:38,1.3,15,1.4,15,1.4,12
2012/11/8 18:39,1.1,14,1.3,15,0.9,11
2012/11/8 18:40,1,14,1.1,15,2.2,11
2012/11/8 18:41,1.1,13,1.1,15,3.1,12
2012/11/8 18:42,1.1,13,1.1,15,1.9,9
2012/11/8 18:43,1,12,1.1,15,0.5,10
2012/11/8 18:44,0.9,12,1,15,0.5,7
2012/11/8 18:45,0.8,11,0.9,15,0.4,9
2012/11/8 18:46,0.7,11,0.8,16,0.6,14
2012/11/8 18:47,0.7,11,0.7,16,2.1,16
2012/11/8 18:48,0.7,12,0.7,15,2.4,15
2012/11/8 18:49,0.8,12,0.8,14,2.9,16
2012/11/8 18:50,0.9,13,0.9,14,2.5,16
2012/11/8 18:51,0.8,14,0.9,13,1.6,15
2012/11/8 18:52,0.8,15,0.8,13,1,16
2012/11/8 18:53,0.8,16,0.8,12,1.1,16
2012/11/8 18:54,0.8,15,0.8,12,0.9,16
2012/11/8 18:55,0.8,16,0.8,12,0.1,8
2012/11/8 18:56,0.8,16,0.8,12,0.3,5
2012/11/8 18:57,0.6,16,0.8,12,0,1
2012/11/8 18:58,0.6,16,0.6,12,1.3,10
2012/11/8 18:59,0.5,16,0.6,12,1.1,13
2012/11/8 19:00,0.4,15,0.5,13,1.1,9
2012/11/8 19:01,0.3,11,0.3,14,1.8,10
2012/11/8 19:02,0.4,9,0.4,15,1.8,9
2012/11/8 19:03,0.5,9,0.5,16,1.6,9
2012/11/8 19:04,0.6,9,0.6,15,1.6,9
2012/11/8 19:05,0.6,10,0.6,16,1.4,11
2012/11/8 19:06,0.8,10,0.8,16,1.4,11
2012/11/8 19:07,0.8,10,0.8,10,1.4,10
2012/11/8 19:08,0.9,10,0.9,10,1.6,10
2012/11/8 19:09,1,10,1,10,1.9,9
2012/11/8 19:10,1.1,10,1.1,10,1.8,9
2012/11/8 19:11,1.1,10,1.1,10,1.5,9
2012/11/8 19:12,1.1,10,1.1,10,1.8,10
2012/11/8 19:13,1.1,10,1.1,10,1.6,9
2012/11/8 19:14,1.1,10,1.1,10,1.8,9
2012/11/8 19:15,1.1,10,1.1,10,1.4,12
2012/11/8 19:16,1.1,10,1.1,10,1.5,11
2012/11/8 19:17,1.1,11,1.1,10,1.6,11
2012/11/8 19:18,1.1,11,1.1,10,1.4,12
2012/11/8 19:19,1,11,1.1,10,0.8,12
2012/11/8 19:20,1,11,1,10,0.6,13
2012/11/8 19:21,0.9,12,1,10,0.6,16
2012/11/8 19:22,0.8,12,0.9,10,0.9,12
2012/11/8 19:23,0.8,12,0.8,10,0.8,11
2012/11/8 19:24,0.7,12,0.8,10,0.6,12
2012/11/8 19:25,0.7,12,0.7,10,0.8,11
2012/11/8 19:26,0.6,12,0.7,10,1,10
2012/11/8 19:27,0.6,12,0.6,11,1.3,12
2012/11/8 19:28,0.6,12,0.6,11,1,10
2012/11/8 19:29,0.6,12,0.6,11,1,12
2012/11/8 19:30,0.6,12,0.6,11,0.9,13
2012/11/8 19:31,0.6,12,0.6,12,0.6,13
2012/11/8 19:32,0.6,12,0.6,12,0.9,12
2012/11/8 19:33,0.7,12,0.7,12,1.4,13
2012/11/8 19:34,0.8,12,0.8,12,1.5,13
2012/11/8 19:35,0.8,12,0.8,12,1.1,12
2012/11/8 19:36,0.9,12,0.9,12,1.6,11
2012/11/8 19:37,0.8,12,0.9,12,1,10
2012/11/8 19:38,0.8,12,0.8,12,0.8,10
2012/11/8 19:39,0.8,12,0.8,12,0.8,13
2012/11/8 19:40,0.8,12,0.8,12,1,13
2012/11/8 19:41,0.9,12,0.9,12,1.9,12
2012/11/8 19:42,1,12,1,12,2,11
2012/11/8 19:43,1,12,1,12,1.8,12
2012/11/8 19:44,1,12,1,12,1.6,12
2012/11/8 19:45,1.1,12,1.1,12,2.4,10
2012/11/8 19:46,1,12,1.1,12,1.1,15
2012/11/8 19:47,1.1,12,1.1,12,1.9,11
2012/11/8 19:48,1.2,12,1.2,12,1.8,11
2012/11/8 19:49,1.2,12,1.2,12,1.1,12
2012/11/8 19:50,1.2,12,1.2,12,1.3,12
2012/11/8 19:51,1.1,12,1.2,12,0.9,10
2012/11/8 19:52,1.1,11,1.1,12,1.6,9
2012/11/8 19:53,1,11,1,12,1.4,9
2012/11/8 19:54,0.9,11,1,12,0.6,14
2012/11/8 19:55,0.8,11,0.9,12,1,9
2012/11/8 19:56,0.7,11,0.8,12,1,14
2012/11/8 19:57,0.7,11,0.7,12,1.6,2
2012/11/8 19:58,0.7,11,0.7,12,1.8,9
2012/11/8 19:59,0.7,11,0.7,12,2,9
2012/11/8 20:00,0.7,10,0.7,12,0.9,15
2012/11/8 20:01,0.6,10,0.7,12,0.4,8
2012/11/8 20:02,0.5,9,0.6,11,0.3,3
2012/11/8 20:03,0.5,8,0.5,11,1,7
2012/11/8 20:04,0.6,8,0.6,11,2.2,7
2012/11/8 20:05,0.7,8,0.7,11,1.4,8
2012/11/8 20:06,0.7,8,0.7,11,1.8,8
2012/11/8 20:07,0.8,8,0.8,8,1.9,8
2012/11/8 20:08,0.7,8,0.8,8,2,8
2012/11/8 22:35,1.9,15,1.9,15,2.4,15
2012/11/8 22:36,3.1,15,3.2,15,4.4,16
2012/11/8 22:37,3,15,3.2,15,3.6,15
2012/11/8 22:38,2.8,15,3,15,2.7,16
2012/11/8 22:39,2.5,15,2.8,15,2.6,15
2012/11/8 22:40,2.5,15,2.5,15,3.3,15
2012/11/8 22:41,2.4,16,2.4,15,3.5,1
2012/11/8 22:42,2.5,16,2.5,15,4.5,16
